| time (UTC) | temp C | wind direction | speed KPH | gust KPH | rain 1hr cm | rain 24hr cm | rain mn cm | humidity % | barometer mb |
| 20260506061545 | 16 | 115 | 0.0 | 8.0 | 0.00 | 0.00 | 0.00 | 77 | 1014.3 |
| 20260506044543 | 17 | 360 | 1.6 | 9.7 | 0.00 | 0.00 | 0.00 | 75 | 1014.1 |
| 20260506043026 | 17 | 360 | 0.0 | 12.9 | 0.00 | 0.00 | 0.00 | 74 | 1014.1 |
| 20260506041523 | 18 | 360 | 1.6 | 16.1 | 0.00 | 0.00 | 0.00 | 74 | 1014.4 |
| 20260506040020 | 18 | 360 | 0.0 | 9.7 | 0.00 | 0.00 | 0.00 | 73 | 1013.9 |
| 20260506034516 | 19 | 360 | 0.0 | 9.7 | 0.00 | 0.00 | 0.00 | 73 | 1013.5 |
| 20260506033020 | 19 | 360 | 0.0 | 11.3 | 0.00 | 0.00 | 0.00 | 72 | 1013.3 |
| 20260506031523 | 20 | 360 | 0.0 | 8.0 | 0.00 | 0.00 | 0.00 | 71 | 1013.0 |
| 20260506030011 | 20 | 360 | 0.0 | 6.4 | 0.00 | 0.00 | 0.00 | 71 | 1012.7 |
| 20260506024509 | 20 | 360 | 0.0 | 8.0 | 0.00 | 0.00 | 0.00 | 70 | 1012.4 |
| 20260506023004 | 20 | 360 | 0.0 | 9.7 | 0.00 | 0.00 | 0.00 | 69 | 1012.1 |
| 20260506021503 | 21 | 360 | 0.0 | 9.7 | 0.00 | 0.00 | 0.00 | 69 | 1011.8 |
| 20260506020100 | 21 | 360 | 0.0 | 16.1 | 0.00 | 0.00 | 0.00 | 68 | 1011.5 |
| 20260506014558 | 22 | 360 | 0.0 | 9.7 | 0.00 | 0.00 | 0.00 | 68 | 1010.9 |
| 20260506013108 | 22 | 360 | 0.0 | 8.0 | 0.00 | 0.00 | 0.00 | 67 | 1010.4 |
| 20260506011559 | 23 | 360 | 0.0 | 6.4 | 0.00 | 0.00 | 0.00 | 66 | 1010.2 |
| 20260506010117 | 23 | 360 | 0.0 | 6.4 | 0.00 | 0.00 | 0.00 | 66 | 1010.2 |
| 20260506004552 | 24 | 360 | 0.0 | 9.7 | 0.00 | 0.00 | 0.00 | 65 | 1009.8 |
| 20260506003052 | 25 | 360 | 0.0 | 6.4 | 0.00 | 0.00 | 0.00 | 63 | 1009.3 |
| 20260506001600 | 25 | 360 | 0.0 | 6.4 | 0.00 | 0.00 | 0.00 | 62 | 1009.3 |
| 20260506000054 | 25 | 360 | 1.6 | 14.5 | 0.00 | 0.00 | 0.00 | 61 | 1009.4 |
| 20260505234550 | 26 | 360 | 0.0 | 22.5 | 0.00 | 0.00 | 0.00 | 60 | 1009.1 |
| 20260505233100 | 27 | 360 | 1.6 | 9.7 | 0.00 | 0.00 | 0.00 | 59 | 1008.8 |
| 20260505231549 | 27 | 360 | 0.0 | 12.9 | 0.00 | 0.00 | 0.00 | 59 | 1008.7 |
| 20260505230054 | 29 | 360 | 0.0 | 9.7 | 0.00 | 0.00 | 0.00 | 57 | 1008.2 |
| 20260505224548 | 30 | 360 | 1.6 | 6.4 | 0.00 | 0.00 | 0.00 | 50 | 1008.1 |
| 20260505223047 | 31 | 360 | 0.0 | 6.4 | 0.00 | 0.00 | 0.00 | 48 | 1007.9 |
| 20260505221546 | 31 | 360 | 0.0 | 3.2 | 0.00 | 0.00 | 0.00 | 47 | 1007.7 |
| 20260505220045 | 33 | 360 | 1.6 | 8.0 | 0.00 | 0.00 | 0.00 | 44 | 1007.3 |
| 20260505214544 | 33 | 355 | 0.0 | 3.2 | 0.00 | 0.00 | 0.00 | 44 | 1007.6 |
| 20260505213041 | 33 | 360 | 0.0 | 1.6 | 0.00 | 0.00 | 0.00 | 44 | 1007.5 |
| 20260505211537 | 33 | 255 | 0.0 | 8.0 | 0.00 | 0.00 | 0.00 | 43 | 1007.7 |
| 20260505210035 | 33 | 360 | 0.0 | 6.4 | 0.00 | 0.00 | 0.00 | 48 | 1008.0 |
| 20260505204534 | 32 | 360 | 1.6 | 6.4 | 0.00 | 0.00 | 0.00 | 49 | 1008.2 |
| 20260505203037 | 32 | 360 | 0.0 | 9.7 | 0.00 | 0.00 | 0.00 | 50 | 1008.2 |
| 20260505201540 | 32 | 360 | 0.0 | 8.0 | 0.00 | 0.00 | 0.00 | 50 | 1008.5 |
| 20260505200032 | 31 | 360 | 1.6 | 12.9 | 0.00 | 0.00 | 0.00 | 52 | 1008.5 |
| 20260505194529 | 32 | 360 | 0.0 | 9.7 | 0.00 | 0.00 | 0.00 | 53 | 1008.6 |
| 20260505193026 | 32 | 360 | 0.0 | 8.0 | 0.00 | 0.00 | 0.00 | 55 | 1008.7 |
| 20260505191523 | 30 | 360 | 0.0 | 12.9 | 0.00 | 0.00 | 0.00 | 57 | 1008.6 |
| 20260505190033 | 30 | 360 | 0.0 | 14.5 | 0.00 | 0.00 | 0.00 | 60 | 1008.7 |
| 20260505184519 | 30 | 228 | 1.6 | 11.3 | 0.00 | 0.00 | 0.00 | 61 | 1008.8 |
| 20260505183016 | 28 | 360 | 1.6 | 12.9 | 0.00 | 0.00 | 0.00 | 65 | 1009.0 |
| 20260505181513 | 28 | 173 | 1.6 | 12.9 | 0.00 | 0.00 | 0.00 | 66 | 1009.1 |
| 20260505180010 | 28 | 360 | 1.6 | 19.3 | 0.00 | 0.00 | 0.00 | 68 | 1009.1 |
| 20260505174510 | 27 | 360 | 1.6 | 12.9 | 0.00 | 0.00 | 0.00 | 68 | 1009.1 |
| 20260505173008 | 27 | 360 | 1.6 | 19.3 | 0.00 | 0.00 | 0.00 | 70 | 1009.2 |
| 20260505171503 | 26 | 360 | 0.0 | 9.7 | 0.00 | 0.00 | 0.00 | 71 | 1009.3 |
| 20260505170003 | 27 | 360 | 0.0 | 14.5 | 0.00 | 0.00 | 0.00 | 72 | 1009.3 |
| 20260505164601 | 26 | 360 | 1.6 | 8.0 | 0.00 | 0.00 | 0.00 | 72 | 1009.2 |
| 20260505163057 | 26 | 360 | 3.2 | 19.3 | 0.00 | 0.00 | 0.00 | 72 | 1009.4 |
| 20260505161616 | 26 | 360 | 3.2 | 16.1 | 0.00 | 0.00 | 0.00 | 73 | 1009.1 |
| 20260505153049 | 24 | 360 | 0.0 | 14.5 | 0.00 | 0.00 | 0.00 | 76 | 1008.9 |
| 20260505151545 | 24 | 360 | 0.0 | 12.9 | 0.00 | 0.00 | 0.00 | 77 | 1009.0 |
| 20260505124522 | 21 | 360 | 1.6 | 11.3 | 0.00 | 0.00 | 0.00 | 84 | 1008.7 |
| 20260505123019 | 21 | 360 | 0.0 | 17.7 | 0.00 | 0.00 | 0.00 | 85 | 1008.4 |
| 20260505121518 | 21 | 360 | 0.0 | 6.4 | 0.00 | 0.00 | 0.00 | 86 | 1008.5 |
| 20260505120038 | 21 | 360 | 0.0 | 1.6 | 0.00 | 0.00 | 0.00 | 86 | 1008.3 |
| 20260505114510 | 21 | 360 | 0.0 | 9.7 | 0.00 | 0.00 | 0.00 | 87 | 1008.3 |
| 20260505113043 | 20 | 360 | 0.0 | 0.0 | 0.00 | 0.00 | 0.00 | 86 | 1008.4 |
| 20260505111534 | 20 | 360 | 0.0 | 8.0 | 0.00 | 0.00 | 0.00 | 86 | 1008.2 |
| 20260505101531 | 21 | 360 | 0.0 | 6.4 | 0.00 | 0.00 | 0.00 | 86 | 1008.0 |
| 20260505100030 | 21 | 360 | 0.0 | 9.7 | 0.00 | 0.00 | 0.00 | 86 | 1007.8 |
| 20260505094528 | 21 | 229 | 0.0 | 12.9 | 0.00 | 0.00 | 0.00 | 85 | 1008.0 |
| 20260505093028 | 21 | 360 | 0.0 | 6.4 | 0.00 | 0.00 | 0.00 | 85 | 1008.0 |
| 20260505091528 | 21 | 360 | 1.6 | 9.7 | 0.00 | 0.00 | 0.00 | 84 | 1008.1 |
| 20260505090037 | 21 | 360 | 1.6 | 12.9 | 0.00 | 0.00 | 0.00 | 83 | 1008.4 |
| 20260505084521 | 21 | 360 | 0.0 | 11.3 | 0.00 | 0.00 | 0.00 | 83 | 1008.3 |
| 20260505083018 | 21 | 360 | 0.0 | 14.5 | 0.00 | 0.00 | 0.00 | 82 | 1008.4 |
| 20260505081516 | 22 | 360 | 1.6 | 14.5 | 0.00 | 0.00 | 0.00 | 81 | 1008.3 |
| 20260505080014 | 22 | 360 | 1.6 | 14.5 | 0.00 | 0.00 | 0.00 | 80 | 1008.3 |
| 20260505074511 | 22 | 360 | 1.6 | 11.3 | 0.00 | 0.00 | 0.00 | 79 | 1008.7 |
| 20260505073017 | 22 | 360 | 1.6 | 9.7 | 0.00 | 0.00 | 0.00 | 78 | 1008.9 |
| 20260505071515 | 22 | 360 | 0.0 | 8.0 | 0.00 | 0.00 | 0.00 | 77 | 1009.2 |